Regional Weather Roundup
Issued by NWS

Home | Current Version | Previous Version | Graphics & Text | Print | Product List | Glossary On
Versions: 1 2 3 4 5 6 7 8 9 10 11 12 13 14 15 16 17 18 19 20 21 22 23 24 25 26 27 28 29 30 31 32 33 34 35 36 37 38 39 40 41 42 43 44 45 46 47 48 49 50
000
ASUS45 KCYS 280810
RWRWY

WYOMING REGIONAL WEATHER ROUNDUP
NATIONAL WEATHER SERVICE CHEYENNE WY
200 AM MDT WED JUN 28 2017

NOTE:  "FAIR" INDICATES FEW OR NO CLOUDS BELOW 12,000 FEET
WITH NO SIGNIFICANT WEATHER AND/OR OBSTRUCTIONS TO VISIBILITY.

WYZ001-280900-
YELLOWSTONE NATIONAL PARK

CITY           SKY/WX    TMP DP  RH WIND       PRES   REMARKS
LK YELLOWSTONE   N/A     41  41 100 CALM      30.10F
W YELLOWSTONE  NOT AVBL

$$
WYZ002>013-054>058-071-098>099-280900-
NORTHERN WYOMING

CITY           SKY/WX    TMP DP  RH WIND       PRES   REMARKS
JACKSON        FAIR      48  45  87 NE6       30.04F
CODY           FAIR      63  40  42 SW9       29.91F
GREYBULL       FAIR      57  43  59 SE7       29.85F
WORLAND        FAIR      54  44  69 E3        29.87F
SHERIDAN       FAIR      52  48  86 CALM      29.85F
BUFFALO        FAIR      56  42  59 W7        29.91F
GILLETTE       FAIR      55  52  89 W10       29.85F
NEWCASTLE      FAIR      54  46  76 NW8       29.85S

$$
WYZ014>020-022>026-101>103-280900-
CENTRAL WYOMING

CITY           SKY/WX    TMP DP  RH WIND       PRES   REMARKS
BIG PINEY      FAIR      41  37  86 E8        30.05F
PINEDALE       FAIR      43  41  93 N3        30.07F
DUBOIS         FAIR      41  36  81 CALM      30.04F
LANDER         FAIR      53  40  61 CALM      29.97F
RIVERTON       FAIR      52  39  61 W8        29.95F
CASPER         FAIR      51  41  68 CALM      29.95F
DOUGLAS        FAIR      51  43  74 W5        29.93F

$$
WYZ021-027>030-104>119-280900-
SOUTHERN WYOMING

CITY           SKY/WX    TMP DP  RH WIND       PRES   REMARKS
EVANSTON       FAIR      55  31  39 S6        30.07F
KEMMERER         N/A     52  34  50 N3        30.07F
FORT BRIDGER   FAIR      53  30  42 S9        30.09F
ROCK SPRINGS   FAIR      54  32  43 S10       30.05S
DIXON          FAIR      49  40  71 E3        30.07S
RAWLINS        FAIR      44  38  79 NW6       30.05F
SARATOGA       FAIR      45  45 100 S13       30.07F
LARAMIE        FAIR      54  36  50 N10       30.05F
CHEYENNE       FAIR      55  39  54 NW3       30.00S
TORRINGTON     FAIR      58  45  62 N12       29.86R
PINE BLUFFS    FAIR      54  43  66 N12       29.94S

$$



USA.gov is the U.S. government's official web portal to all federal, state and local government web resources and services.